Stündliche Wetter Abbenrode

Heute, 23 Juni, Mittwoch

Zeit Temperatur Niederschläge Wind Luftdruck Luftfeuchtigkeit
00:00 +13°C° 0 mm 1 m/S 742 mmHg 87%
01:00 +12°C° 0 mm 1 m/S 742 mmHg 89%
02:00 +12°C° 0 mm 1 m/S 742 mmHg 89%
03:00 +12°C° 0 mm 1 m/S 742 mmHg 88%
04:00 +11°C° 0 mm 1 m/S 742 mmHg 88%
05:00 +12°C° 0 mm 1 m/S 743 mmHg 85%
06:00 +13°C° 0 mm 1 m/S 743 mmHg 82%
07:00 +14°C° 0 mm 1 m/S 743 mmHg 79%
08:00 +15°C° 0 mm 1 m/S 743 mmHg 77%
09:00 +16°C° 0 mm 1 m/S 744 mmHg 74%
10:00 +18°C° 0 mm 1 m/S 744 mmHg 72%
11:00 +19°C° 0 mm 1 m/S 744 mmHg 72%
12:00 +19°C° 0 mm 1 m/S 744 mmHg 71%
13:00 +20°C° 0 mm 1 m/S 744 mmHg 71%
14:00 +20°C° 0 mm 1 m/S 744 mmHg 72%
15:00 +20°C° 0 mm 1 m/S 744 mmHg 73%
16:00 +20°C° 0 mm 1 m/S 744 mmHg 74%
17:00 +20°C° 0 mm 1 m/S 744 mmHg 76%
18:00 +20°C° 0 mm 1 m/S 744 mmHg 78%
19:00 +20°C° 0 mm 1 m/S 743 mmHg 80%
20:00 +19°C° 0 mm 1 m/S 743 mmHg 84%
21:00 +16°C° 0 mm 0 m/S 744 mmHg 87%
22:00 +14°C° 0 mm 0 m/S 744 mmHg 90%
23:00 +14°C° 0 mm 0 m/S 744 mmHg 91%

Morgen, 24 Juni, Donnerstag

Zeit Temperatur Niederschläge Wind Luftdruck Luftfeuchtigkeit
00:00 +13°C° 0 mm 0 m/S 744 mmHg 92%
01:00 +13°C° 0 mm 0 m/S 744 mmHg 94%
02:00 +13°C° 0 mm 1 m/S 744 mmHg 95%
03:00 +13°C° 0 mm 1 m/S 743 mmHg 95%
04:00 +13°C° 0 mm 1 m/S 743 mmHg 96%
05:00 +14°C° 0 mm 1 m/S 743 mmHg 94%
06:00 +15°C° 0 mm 1 m/S 744 mmHg 92%
07:00 +16°C° 0 mm 1 m/S 744 mmHg 90%
08:00 +18°C° 0 mm 1 m/S 744 mmHg 86%
09:00 +19°C° 0 mm 1 m/S 744 mmHg 81%
10:00 +20°C° 0 mm 1 m/S 743 mmHg 77%
11:00 +20°C° 0.1 mm 1 m/S 743 mmHg 75%
12:00 +21°C° 0.1 mm 1 m/S 743 mmHg 73%
13:00 +22°C° 0.1 mm 1 m/S 743 mmHg 71%
14:00 +22°C° 0.4 mm 1 m/S 743 mmHg 73%
15:00 +22°C° 0.4 mm 1 m/S 743 mmHg 75%
16:00 +22°C° 0.4 mm 1 m/S 742 mmHg 77%
17:00 +21°C° 0.6 mm 1 m/S 742 mmHg 81%
18:00 +20°C° 0.6 mm 1 m/S 742 mmHg 86%
19:00 +20°C° 0.6 mm 1 m/S 742 mmHg 90%
20:00 +18°C° 0.1 mm 1 m/S 742 mmHg 91%
21:00 +16°C° 0.1 mm 1 m/S 742 mmHg 92%
22:00 +15°C° 0.1 mm 1 m/S 742 mmHg 94%
23:00 +15°C° 0.1 mm 1 m/S 742 mmHg 95%

übermorgen, 25 Juni, Freitag

Zeit Temperatur Niederschläge Wind Luftdruck Luftfeuchtigkeit
00:00 +14°C° 0.1 mm 1 m/S 742 mmHg 96%
01:00 +14°C° 0.1 mm 1 m/S 742 mmHg 97%
02:00 +14°C° 0.1 mm 1 m/S 742 mmHg 97%
03:00 +14°C° 0.1 mm 1 m/S 741 mmHg 98%
04:00 +14°C° 0.1 mm 1 m/S 741 mmHg 98%
05:00 +14°C° 0.1 mm 1 m/S 741 mmHg 96%
06:00 +14°C° 0.1 mm 1 m/S 742 mmHg 94%
07:00 +15°C° 0.1 mm 1 m/S 742 mmHg 93%
08:00 +15°C° 0.1 mm 2 m/S 742 mmHg 88%
09:00 +16°C° 0.1 mm 2 m/S 742 mmHg 83%
10:00 +17°C° 0.1 mm 2 m/S 742 mmHg 78%
11:00 +17°C° 0.1 mm 2 m/S 742 mmHg 77%
12:00 +17°C° 0.1 mm 2 m/S 742 mmHg 77%
13:00 +18°C° 0.1 mm 2 m/S 742 mmHg 76%
14:00 +19°C° 0 mm 1 m/S 742 mmHg 75%
15:00 +19°C° 0 mm 1 m/S 742 mmHg 74%
16:00 +20°C° 0 mm 1 m/S 742 mmHg 73%
17:00 +20°C° 0.1 mm 1 m/S 742 mmHg 76%
18:00 +20°C° 0.1 mm 1 m/S 742 mmHg 79%
19:00 +20°C° 0.1 mm 1 m/S 742 mmHg 82%
20:00 +18°C° 0 mm 1 m/S 742 mmHg 84%
21:00 +16°C° 0 mm 1 m/S 742 mmHg 86%
22:00 +14°C° 0 mm 1 m/S 743 mmHg 88%
23:00 +14°C° 0 mm 1 m/S 743 mmHg 88%

26 Juni, Samstag

Zeit Temperatur Niederschläge Wind Luftdruck Luftfeuchtigkeit
00:00 +14°C° 0 mm 1 m/S 743 mmHg 88%
01:00 +12°C° 0 mm 0 m/S 743 mmHg 88%
02:00 +12°C° 0 mm 0 m/S 743 mmHg 88%
03:00 +12°C° 0 mm 0 m/S 743 mmHg 89%
04:00 +12°C° 0 mm 1 m/S 743 mmHg 89%
05:00 +13°C° 0 mm 0 m/S 743 mmHg 86%
06:00 +14°C° 0 mm 0 m/S 743 mmHg 83%
07:00 +16°C° 0 mm 0 m/S 743 mmHg 80%
08:00 +17°C° 0 mm 0 m/S 743 mmHg 73%
09:00 +19°C° 0 mm 0 m/S 744 mmHg 65%
10:00 +22°C° 0 mm 1 m/S 744 mmHg 58%
11:00 +23°C° 0 mm 1 m/S 744 mmHg 57%
12:00 +23°C° 0 mm 1 m/S 743 mmHg 57%
13:00 +23°C° 0 mm 1 m/S 743 mmHg 57%
14:00 +23°C° 0 mm 1 m/S 743 mmHg 56%
15:00 +24°C° 0 mm 1 m/S 743 mmHg 56%
16:00 +24°C° 0 mm 1 m/S 743 mmHg 55%
17:00 +23°C° 0 mm 1 m/S 743 mmHg 61%
18:00 +23°C° 0 mm 1 m/S 743 mmHg 67%
19:00 +22°C° 0 mm 1 m/S 743 mmHg 73%
20:00 +20°C° 0 mm 1 m/S 743 mmHg 76%
21:00 +19°C° 0 mm 1 m/S 743 mmHg 78%
22:00 +16°C° 0 mm 1 m/S 743 mmHg 81%
23:00 +16°C° 0 mm 1 m/S 743 mmHg 82%

27 Juni, Sonntag

Zeit Temperatur Niederschläge Wind Luftdruck Luftfeuchtigkeit
00:00 +15°C° 0 mm 1 m/S 743 mmHg 82%
01:00 +15°C° 0 mm 1 m/S 743 mmHg 83%
02:00 +15°C° 0 mm 1 m/S 743 mmHg 84%
03:00 +14°C° 0 mm 1 m/S 743 mmHg 84%
04:00 +14°C° 0 mm 1 m/S 743 mmHg 84%
05:00 +16°C° 0 mm 1 m/S 743 mmHg 80%
06:00 +18°C° 0 mm 1 m/S 743 mmHg 76%
07:00 +20°C° 0 mm 1 m/S 743 mmHg 72%
08:00 +21°C° 0 mm 1 m/S 743 mmHg 68%
09:00 +23°C° 0 mm 2 m/S 743 mmHg 64%
10:00 +24°C° 0 mm 2 m/S 743 mmHg 61%
11:00 +25°C° 0 mm 2 m/S 742 mmHg 59%
12:00 +26°C° 0 mm 3 m/S 742 mmHg 57%
13:00 +26°C° 0 mm 3 m/S 742 mmHg 55%
14:00 +26°C° 0 mm 3 m/S 742 mmHg 55%
15:00 +27°C° 0 mm 3 m/S 742 mmHg 56%
16:00 +27°C° 0 mm 3 m/S 741 mmHg 56%
17:00 +26°C° 0 mm 2 m/S 741 mmHg 62%
18:00 +25°C° 0 mm 2 m/S 741 mmHg 67%
19:00 +24°C° 0 mm 1 m/S 741 mmHg 72%
20:00 +23°C° 0 mm 1 m/S 741 mmHg 74%
21:00 +21°C° 0 mm 2 m/S 741 mmHg 76%
22:00 +20°C° 0 mm 2 m/S 741 mmHg 78%
23:00 +20°C° 0.5 mm 1 m/S 741 mmHg 82%

28 Juni, Montag

Zeit Temperatur Niederschläge Wind Luftdruck Luftfeuchtigkeit
00:00 +20°C° 0.5 mm 1 m/S 741 mmHg 85%
01:00 +19°C° 0.5 mm 1 m/S 741 mmHg 89%
02:00 +19°C° 0.1 mm 1 m/S 741 mmHg 90%
03:00 +19°C° 0.1 mm 1 m/S 741 mmHg 91%
04:00 +18°C° 0.1 mm 1 m/S 741 mmHg 92%
05:00 +19°C° 0 mm 1 m/S 741 mmHg 90%
06:00 +20°C° 0 mm 1 m/S 741 mmHg 88%
07:00 +21°C° 0 mm 1 m/S 741 mmHg 87%
08:00 +22°C° 0 mm 1 m/S 742 mmHg 79%
09:00 +24°C° 0 mm 2 m/S 742 mmHg 71%
10:00 +25°C° 0 mm 2 m/S 742 mmHg 63%
11:00 +26°C° 0 mm 2 m/S 742 mmHg 60%
12:00 +27°C° 0 mm 2 m/S 742 mmHg 58%
13:00 +27°C° 0 mm 2 m/S 742 mmHg 56%
14:00 +27°C° 0 mm 2 m/S 742 mmHg 57%
15:00 +27°C° 0 mm 2 m/S 742 mmHg 59%
16:00 +27°C° 0 mm 2 m/S 742 mmHg 61%
17:00 +27°C° 0 mm 2 m/S 742 mmHg 66%
18:00 +26°C° 0 mm 2 m/S 741 mmHg 71%
19:00 +25°C° 0 mm 1 m/S 741 mmHg 77%
20:00 +24°C° 0.5 mm 1 m/S 741 mmHg 81%
21:00 +22°C° 0.5 mm 1 m/S 741 mmHg 85%
22:00 +21°C° 0.5 mm 1 m/S 741 mmHg 89%
23:00 +20°C° 0.4 mm 1 m/S 741 mmHg 90%
Mehr zeigen

Wir brauchen deine Erlaubnis

Meteoprog und unser Service Anbieter werden persönliche Daten aufbewahren, so wie Cookies, Geräte Bezeichnung oder ähnliche Technologien von deinem Gerät und Prozess, so wie Persönliche Daten Inhalte und Werbungen, genauso wie social Media und den Verkehr zu analysieren.

  • Aufbewahrung und/oder Zugang zu deiner Geräte Informationen.

    Cookies, Geräte Bezeichnung oder andere Informationen, können aufbewahrt oder Zugang zu deinem Gerät erhalten, für den Grund, der oben angegeben wird.

  • Personalisierte Werbung und Inhalte, Messungen, Einblick in das Publikum und Produkt Entwicklung.

    Werbungen und Inhalte können personalisiert werden, basierend auf ein Profil. Mehr Daten können besser personalisierte Werbungen und Inhalte hinzufügen. Werbung und Inhalte können gezeigt und gemessen werden. Einblicke über das Publikum, welche die Werbung gesehen haben und den Inhalt, können abgeleitet werden. So wie Daten können genutzt werden, um es zu verbessern oder die Benutzer Erfahrung zu verbessern das System und die Software.

Wenn du “Ich stimme zu” klickst, erlaubst du uns, die Cookies zu benutzen die Geräte Bezeichnung, den Web oder ähnliche Technologien zu benutzen. Deine Settings, können in deinem Gerät bei deinem Browser geändert werden.

Für den bestimmten Zweck, berechtigten Interessen beruhen darauf, mehr als auf den Inhalt. Du kannst mehr darüber in unseren Privaten und Cookie Politik lesen.